STARLINK-1043, 44748

Orbit data source: Space-Track

STARLINK-1043, 44748 is a payload satellite owned by SpaceX/Seattle (US) in LEO that was launched on Mon, 11 Nov 2019 UTC via an FALCON 9 launch vehicle from the Air Force Eastern Test Range (AFETR). Payload-class satellites include a variety of spacecraft equipped with specific instruments for various scientific and technological missions. These include communications satellites like Starlink; space stations such as the ISS; scientific satellites like the Hubble; Earth observation satellites from companies like Planet Labs, Umbra, and HawkEye 360; GPS; miniature CubeSats for education and research; and military/defense satellites.

Loading next visibility...
Identifier
44748, 2019-074AM
Orbit
LEO
Country
Flag of USUS
Related business
Manufacturer
SpaceX/Seattle
Mission
Partially operational Commercial Communications
Bus & Motor
STARLINK, Unknown motor
Mass
260 kg wet, ~248 kg dry
Launch date (UTC)
2019-11-11 (6 years ago)
Launch vehicle
FALCON 9
Launch site
Air Force Eastern Test Range (AFETR)
Object type
Payload
Rocket body
Debris
Shape & HBR
Box + 1 Pan, 10.1 m
Radar Cross Section
13.562 m², Large (>1 m²)

Expand to show TLE details & history
Last TLE update: 7 hours ago

TLE from 7 hours ago
0 STARLINK-1043
1 44748U 19074AM  26127.12010603  .00032947  00000-0  43960-3 0  9999
2 44748  53.0512 271.7345 0001181 256.8638 103.2242 15.57813541357743
Epoch: 2026-05-07T02:52Z
TLE epoch observation values (Epoch: 2026-05-07T02:52:57.160Z)
Latitude
-0.00001°
Longitude
3.52551°
Altitude
395.068 km
Speed
7.674 km/s
True Right ascension
18h 06m 56s
True Declination
0° 00' 00"
Sunlit
Object was in full shadow at epoch
Visualization orbit readout
Latitude
Unknown
Longitude
Unknown
Altitude
Unknown
Speed
Unknown
Apparent Right ascension
Unknown
Apparent Declination
Unknown
Sunlit
N/A
Visualization observer readout
Local Sidereal Time
17:54:22
Azimuth
Unknown
Elevation
Unknown
Doppler factor
Unknown
Orbital elements
Apogee altitude
395.063 km
Perigee altitude
393.464 km
Semi-major axis
6,772.401 km
Eccentricity
0.00012
Inclination
53.0512°
RAAN
271.7345°
Arg. of periapsis
256.8638°
True anomaly
103.23737°
Mean anomaly
103.2242°
Eccentric anomaly
103.23079°
Mean motion
3.8943 °/min
Orbital period
92.44 mins
BSTAR
0.0004396
Loading maneuver chart data...
Computing Atmospheric mass density...
Loading historical data...
Loading historical data...
Loading historical data...
Loading historical data...
Loading historical data...
Loading historical data...
Loading historical data...

Documentation

Showing up to 5 results
|